BAW4CD ELLX-LIRP

Flight info

Callsign BAW4CD
Flight time 1h 9m
Altitude 23000
Route GTQ A242 POGOL/N0447F370 DCT LASAT DCT DEVDI DCT RIPUS DCT GERSA DCT SOSON DCT ODINA DCT SRN DCT ROBAS DCT MISPO DCT OSBUL DCT EKPAL DCT MIVKI
Aircraft A319/M-SDE3FGHIRWY/LB1

Departure

Time 2026-04-30 11:37
Airport Luxembourg-Findel International Airport (ELLX)

Arrival

Time 2026-04-30 12:47
Airport Pisa International Airport (LIRP)
Time Latitude Longitude Altitude Speed Heading
2026-04-30 11:21 49.63540 6.22672 1208 ft 0 kts 241°
2026-04-30 11:29 49.63536 6.22662 1209 ft 2 kts 239°
2026-04-30 11:30 49.63503 6.22579 1208 ft 6 kts 238°
2026-04-30 11:30 49.63475 6.22506 1207 ft 8 kts 239°
2026-04-30 11:30 49.63428 6.22471 1207 ft 9 kts 155°
2026-04-30 11:31 49.63360 6.22499 1205 ft 11 kts 200°
2026-04-30 11:31 49.63315 6.22404 1206 ft 11 kts 241°
2026-04-30 11:31 49.63281 6.22301 1208 ft 9 kts 244°
2026-04-30 11:31 49.63252 6.22207 1211 ft 11 kts 244°
2026-04-30 11:32 49.63204 6.22056 1217 ft 16 kts 244°
2026-04-30 11:32 49.63142 6.21854 1219 ft 15 kts 244°
2026-04-30 11:32 49.63111 6.21751 1222 ft 15 kts 245°
2026-04-30 11:33 49.63000 6.21400 1228 ft 24 kts 244°
2026-04-30 11:33 49.62920 6.21143 1234 ft 28 kts 244°
2026-04-30 11:33 49.62825 6.20836 1237 ft 33 kts 241°
2026-04-30 11:33 49.62669 6.20588 1229 ft 31 kts 225°
2026-04-30 11:34 49.62524 6.20335 1221 ft 31 kts 230°
2026-04-30 11:34 49.62421 6.20073 1211 ft 29 kts 239°
2026-04-30 11:34 49.62317 6.19796 1199 ft 31 kts 240°
2026-04-30 11:34 49.62232 6.19576 1187 ft 16 kts 235°
2026-04-30 11:35 49.62178 6.19560 1186 ft 0 kts 153°
2026-04-30 11:35 49.62142 6.19589 1186 ft 10 kts 152°
2026-04-30 11:36 49.62091 6.19646 1187 ft 4 kts 81°
2026-04-30 11:36 49.62101 6.19686 1190 ft 9 kts 63°
2026-04-30 11:36 49.62103 6.19693 1190 ft 0 kts 60°
2026-04-30 11:36 49.62111 6.19714 1191 ft 17 kts 60°
2026-04-30 11:37 49.62289 6.20200 1213 ft 84 kts 61°
2026-04-30 11:37 49.62684 6.21267 1221 ft 143 kts 61°
2026-04-30 11:37 49.63170 6.22715 1726 ft 151 kts 68°
2026-04-30 11:37 49.63656 6.24135 2341 ft 152 kts 66°
2026-04-30 11:38 49.64204 6.25534 3005 ft 157 kts 65°
2026-04-30 11:38 49.64445 6.27203 3320 ft 173 kts 100°
2026-04-30 11:38 49.63854 6.28930 3689 ft 199 kts 130°
2026-04-30 11:38 49.62749 6.30372 4165 ft 219 kts 136°
2026-04-30 11:39 49.61494 6.31879 4682 ft 238 kts 136°
2026-04-30 11:39 49.60193 6.33538 5347 ft 248 kts 135°
2026-04-30 11:39 49.58912 6.35277 6170 ft 251 kts 134°
2026-04-30 11:39 49.57626 6.37091 7004 ft 255 kts 133°
2026-04-30 11:40 49.56295 6.38882 7812 ft 261 kts 139°
2026-04-30 11:40 49.54753 6.40406 8617 ft 269 kts 148°
2026-04-30 11:40 49.53049 6.41661 9437 ft 275 kts 151°
2026-04-30 11:40 49.51311 6.42862 10189 ft 280 kts 151°
2026-04-30 11:41 49.49524 6.44091 10857 ft 288 kts 152°
2026-04-30 11:41 49.47658 6.45381 11258 ft 305 kts 152°
2026-04-30 11:41 49.45650 6.46772 11628 ft 324 kts 152°
2026-04-30 11:41 49.43564 6.48217 11949 ft 341 kts 152°
2026-04-30 11:42 49.41331 6.49761 12258 ft 358 kts 152°
2026-04-30 11:42 49.39038 6.51344 12820 ft 366 kts 152°
2026-04-30 11:42 49.36716 6.52943 13525 ft 369 kts 152°
2026-04-30 11:42 49.34382 6.54550 14200 ft 372 kts 152°
2026-04-30 11:43 49.32038 6.56163 14826 ft 376 kts 152°
2026-04-30 11:43 49.29639 6.57815 15444 ft 380 kts 152°
2026-04-30 11:43 49.27238 6.59464 16053 ft 383 kts 152°
2026-04-30 11:43 49.24773 6.61086 16653 ft 388 kts 154°
2026-04-30 11:44 49.22219 6.62499 17239 ft 393 kts 158°
2026-04-30 11:44 49.19604 6.63663 17810 ft 398 kts 161°
2026-04-30 11:44 49.16917 6.64686 18381 ft 401 kts 161°
2026-04-30 11:44 49.14216 6.65707 18932 ft 405 kts 162°
2026-04-30 11:45 49.11454 6.66753 19468 ft 409 kts 162°
2026-04-30 11:45 49.08711 6.67793 19999 ft 412 kts 162°
2026-04-30 11:45 49.05930 6.68844 20512 ft 416 kts 162°
2026-04-30 11:45 49.03097 6.69915 21015 ft 419 kts 162°
2026-04-30 11:46 49.00254 6.70821 21501 ft 425 kts 166°
2026-04-30 11:46 48.97314 6.71354 21965 ft 432 kts 172°
2026-04-30 11:46 48.94293 6.71476 22417 ft 438 kts 177°
2026-04-30 11:46 48.91239 6.71372 22855 ft 442 kts 178°
2026-04-30 11:47 48.88161 6.71233 23298 ft 445 kts 178°
2026-04-30 11:47 48.85045 6.71091 23873 ft 445 kts 178°
2026-04-30 11:47 48.81949 6.70952 24562 ft 442 kts 178°
2026-04-30 11:47 48.78883 6.70825 25063 ft 443 kts 178°
2026-04-30 11:48 48.75751 6.70702 25471 ft 446 kts 178°
2026-04-30 11:48 48.72631 6.70582 25881 ft 449 kts 178°
2026-04-30 11:48 48.69527 6.70461 26310 ft 451 kts 178°
2026-04-30 11:48 48.66368 6.70336 26732 ft 453 kts 178°
2026-04-30 11:49 48.63253 6.70216 27144 ft 455 kts 178°
2026-04-30 11:49 48.60075 6.70095 27549 ft 457 kts 178°
2026-04-30 11:49 48.56861 6.69972 27936 ft 460 kts 178°
2026-04-30 11:49 48.53665 6.69850 28324 ft 462 kts 178°
2026-04-30 11:50 48.50469 6.69726 28753 ft 462 kts 178°
2026-04-30 11:50 48.47254 6.69601 29304 ft 460 kts 178°
2026-04-30 11:50 48.44097 6.69479 29861 ft 457 kts 178°
2026-04-30 11:50 48.40884 6.69354 30380 ft 455 kts 178°
2026-04-30 11:51 48.37740 6.69233 30849 ft 454 kts 178°
2026-04-30 11:51 48.34557 6.69112 31310 ft 453 kts 178°
2026-04-30 11:51 48.31446 6.68992 31746 ft 452 kts 178°
2026-04-30 11:51 48.28298 6.68870 32176 ft 451 kts 178°
2026-04-30 11:52 48.25168 6.68886 32571 ft 448 kts 172°
2026-04-30 11:52 48.22114 6.69529 32967 ft 443 kts 164°
2026-04-30 11:52 48.19210 6.70796 33351 ft 438 kts 156°
2026-04-30 11:52 48.16433 6.72684 33749 ft 433 kts 147°
2026-04-30 11:53 48.13938 6.75056 34119 ft 428 kts 140°
2026-04-30 11:53 48.11669 6.77937 34475 ft 424 kts 132°
2026-04-30 11:53 48.09712 6.81201 34770 ft 421 kts 124°
2026-04-30 11:53 48.07990 6.84700 35018 ft 421 kts 122°
2026-04-30 11:54 48.06301 6.88233 35264 ft 422 kts 122°
2026-04-30 11:54 48.04583 6.91830 35498 ft 423 kts 122°
2026-04-30 11:54 48.02876 6.95392 35712 ft 424 kts 123°
2026-04-30 11:54 48.01163 6.98950 35894 ft 426 kts 123°
2026-04-30 11:55 47.99437 7.02527 36083 ft 428 kts 123°
2026-04-30 11:55 47.97701 7.06109 36281 ft 429 kts 123°
2026-04-30 11:55 47.95954 7.09707 36467 ft 430 kts 123°
2026-04-30 11:55 47.94183 7.13350 36637 ft 431 kts 123°
2026-04-30 11:56 47.92435 7.16939 36838 ft 432 kts 123°
2026-04-30 11:56 47.90678 7.20543 37010 ft 434 kts 123°
2026-04-30 11:56 47.88888 7.24209 37171 ft 436 kts 123°
2026-04-30 11:56 47.87096 7.27872 37178 ft 437 kts 123°
2026-04-30 11:57 47.83530 7.35150 37175 ft 438 kts 123°
2026-04-30 11:57 47.79936 7.42468 37183 ft 438 kts 123°
2026-04-30 11:58 47.76357 7.49736 37183 ft 438 kts 123°
2026-04-30 11:58 47.72765 7.57006 37189 ft 439 kts 123°
2026-04-30 11:59 47.69160 7.64288 37187 ft 440 kts 123°
2026-04-30 11:59 47.65540 7.71578 37192 ft 441 kts 123°
2026-04-30 12:00 47.61906 7.78881 37185 ft 441 kts 123°
2026-04-30 12:00 47.58263 7.86183 37181 ft 442 kts 123°
2026-04-30 12:01 47.54624 7.93455 37178 ft 442 kts 123°
2026-04-30 12:01 47.50960 8.00761 37171 ft 443 kts 123°
2026-04-30 12:02 47.47292 8.08055 37180 ft 444 kts 123°
2026-04-30 12:02 47.43603 8.15369 37179 ft 444 kts 123°
2026-04-30 12:03 47.38076 8.26296 37185 ft 445 kts 123°
2026-04-30 12:04 47.34379 8.33579 37189 ft 446 kts 123°
2026-04-30 12:04 47.30586 8.40738 37192 ft 449 kts 130°
2026-04-30 12:05 47.25738 8.46604 37188 ft 456 kts 146°
2026-04-30 12:05 47.19938 8.50369 37188 ft 462 kts 162°
2026-04-30 12:06 47.13588 8.51877 37190 ft 465 kts 172°
2026-04-30 12:06 47.07175 8.52734 37191 ft 466 kts 172°
2026-04-30 12:07 47.00716 8.53659 37174 ft 465 kts 172°
2026-04-30 12:07 46.94288 8.54585 37181 ft 467 kts 172°
2026-04-30 12:08 46.87847 8.55513 37188 ft 467 kts 172°
2026-04-30 12:08 46.81316 8.56449 37187 ft 468 kts 172°
2026-04-30 12:09 46.74815 8.57382 37210 ft 468 kts 173°
2026-04-30 12:09 46.68350 8.58305 37206 ft 468 kts 173°
2026-04-30 12:10 46.61867 8.59229 37203 ft 469 kts 173°
2026-04-30 12:10 46.55338 8.60157 37196 ft 469 kts 173°
2026-04-30 12:11 46.48840 8.61079 37212 ft 470 kts 173°
2026-04-30 12:11 46.42338 8.61998 37238 ft 470 kts 173°
2026-04-30 12:12 46.35857 8.62913 37239 ft 470 kts 173°
2026-04-30 12:12 46.29373 8.63825 37247 ft 470 kts 173°
2026-04-30 12:13 46.22877 8.64737 37256 ft 471 kts 173°
2026-04-30 12:13 46.16400 8.65861 37286 ft 472 kts 169°
2026-04-30 12:14 46.10015 8.68120 37284 ft 471 kts 161°
2026-04-30 12:14 46.03913 8.71608 37287 ft 470 kts 153°
2026-04-30 12:15 45.98156 8.76023 37287 ft 470 kts 150°
2026-04-30 12:15 45.72631 8.95956 37283 ft 472 kts 150°
2026-04-30 12:16 45.67033 9.00946 37284 ft 473 kts 143°
2026-04-30 12:16 45.61944 9.06761 37279 ft 473 kts 136°
2026-04-30 12:17 45.55123 9.16921 37275 ft 473 kts 130°
2026-04-30 12:17 45.50737 9.23849 37267 ft 474 kts 130°
2026-04-30 12:18 45.46307 9.30793 37267 ft 474 kts 130°
2026-04-30 12:18 45.41886 9.37693 37268 ft 475 kts 130°
2026-04-30 12:19 45.22319 9.68067 37266 ft 477 kts 131°
2026-04-30 12:19 45.18084 9.75310 37249 ft 477 kts 124°
2026-04-30 12:20 45.14333 9.83056 37108 ft 478 kts 122°
2026-04-30 12:20 45.12509 9.86899 36841 ft 476 kts 122°
2026-04-30 12:20 45.10662 9.90779 36551 ft 473 kts 122°
2026-04-30 12:21 45.08828 9.94608 36265 ft 470 kts 122°
2026-04-30 12:21 45.06997 9.98388 36033 ft 469 kts 124°
2026-04-30 12:21 45.05035 10.02059 35760 ft 469 kts 127°
2026-04-30 12:21 45.02908 10.05605 35335 ft 471 kts 130°
2026-04-30 12:22 45.00649 10.08954 34749 ft 474 kts 134°
2026-04-30 12:22 44.98275 10.12091 34088 ft 476 kts 138°
2026-04-30 12:22 44.95714 10.15092 33344 ft 480 kts 141°
2026-04-30 12:22 44.93049 10.17914 32597 ft 482 kts 142°
2026-04-30 12:23 44.90369 10.20716 31863 ft 483 kts 142°
2026-04-30 12:23 44.87672 10.23552 31060 ft 485 kts 141°
2026-04-30 12:23 44.84837 10.26182 30141 ft 491 kts 153°
2026-04-30 12:23 44.81614 10.27663 29185 ft 495 kts 171°
2026-04-30 12:24 44.78189 10.27796 28221 ft 495 kts 188°
2026-04-30 12:24 44.74905 10.26716 27566 ft 487 kts 198°
2026-04-30 12:24 44.71687 10.25392 26949 ft 482 kts 198°
2026-04-30 12:24 44.68455 10.24083 26345 ft 477 kts 198°
2026-04-30 12:25 44.65295 10.22862 25698 ft 474 kts 197°
2026-04-30 12:25 44.62127 10.21654 25062 ft 470 kts 197°
2026-04-30 12:25 44.58997 10.20462 24492 ft 465 kts 197°
2026-04-30 12:25 44.55930 10.19293 23951 ft 460 kts 197°
2026-04-30 12:26 44.52851 10.18116 23426 ft 454 kts 197°
2026-04-30 12:26 44.49827 10.16957 22913 ft 449 kts 197°
2026-04-30 12:26 44.46833 10.15808 22415 ft 443 kts 197°
2026-04-30 12:26 44.43898 10.14684 21934 ft 438 kts 197°
2026-04-30 12:27 44.41001 10.13576 21463 ft 433 kts 197°
2026-04-30 12:27 44.38117 10.12474 20986 ft 428 kts 197°
2026-04-30 12:27 44.35246 10.11378 20431 ft 426 kts 197°
2026-04-30 12:27 44.32395 10.10287 19809 ft 426 kts 197°
2026-04-30 12:28 44.29570 10.09209 19130 ft 427 kts 197°
2026-04-30 12:28 44.26712 10.08119 18451 ft 427 kts 197°
2026-04-30 12:28 44.23840 10.07025 17787 ft 426 kts 197°
2026-04-30 12:28 44.20990 10.05944 17082 ft 426 kts 197°
2026-04-30 12:29 44.18160 10.04869 16391 ft 425 kts 197°
2026-04-30 12:29 44.15299 10.03787 15740 ft 423 kts 197°
2026-04-30 12:29 44.12506 10.02729 15266 ft 416 kts 197°
2026-04-30 12:29 44.09739 10.01683 14688 ft 414 kts 197°
2026-04-30 12:30 44.06963 10.00632 14124 ft 410 kts 197°
2026-04-30 12:30 44.04226 9.99599 13568 ft 407 kts 197°
2026-04-30 12:30 44.01512 9.98574 12989 ft 405 kts 197°
2026-04-30 12:30 43.98830 9.97560 12550 ft 399 kts 197°
2026-04-30 12:31 43.96181 9.96560 12065 ft 395 kts 197°
2026-04-30 12:31 43.93533 9.95562 11620 ft 389 kts 196°
2026-04-30 12:31 43.90954 9.94592 11242 ft 382 kts 196°
2026-04-30 12:31 43.88385 9.93626 10886 ft 375 kts 196°
2026-04-30 12:32 43.85907 9.92695 10630 ft 363 kts 195°
2026-04-30 12:32 43.83586 9.91825 10487 ft 335 kts 195°
2026-04-30 12:32 43.81390 9.91002 10168 ft 315 kts 195°
2026-04-30 12:32 43.79325 9.90228 9732 ft 302 kts 195°
2026-04-30 12:33 43.77346 9.89488 9305 ft 291 kts 195°
2026-04-30 12:33 43.75423 9.88770 8934 ft 287 kts 195°
2026-04-30 12:33 43.73482 9.88045 8560 ft 287 kts 195°
2026-04-30 12:33 43.71563 9.87328 8194 ft 288 kts 195°
2026-04-30 12:34 43.69642 9.86610 7831 ft 289 kts 195°
2026-04-30 12:34 43.67700 9.85887 7461 ft 289 kts 194°
2026-04-30 12:34 43.65719 9.85603 7082 ft 287 kts 168°
2026-04-30 12:34 43.63948 9.86689 6835 ft 278 kts 140°
2026-04-30 12:35 43.62452 9.88365 6588 ft 273 kts 138°
2026-04-30 12:35 43.61000 9.90004 6340 ft 269 kts 139°
2026-04-30 12:35 43.59555 9.91610 6091 ft 266 kts 139°
2026-04-30 12:35 43.58108 9.93192 5838 ft 263 kts 140°
2026-04-30 12:36 43.56692 9.94727 5589 ft 260 kts 140°
2026-04-30 12:36 43.55284 9.96244 5339 ft 257 kts 140°
2026-04-30 12:36 43.53887 9.97745 5090 ft 254 kts 140°
2026-04-30 12:36 43.52489 9.99245 4843 ft 251 kts 140°
2026-04-30 12:37 43.51122 10.00709 4597 ft 249 kts 140°
2026-04-30 12:37 43.49764 10.02161 4348 ft 247 kts 139°
2026-04-30 12:37 43.48418 10.03603 4101 ft 245 kts 139°
2026-04-30 12:37 43.47084 10.05029 3968 ft 237 kts 140°
2026-04-30 12:38 43.45818 10.06379 3958 ft 223 kts 140°
2026-04-30 12:38 43.44634 10.07642 3953 ft 210 kts 139°
2026-04-30 12:38 43.43523 10.08847 3947 ft 197 kts 133°
2026-04-30 12:38 43.42816 10.10360 3941 ft 185 kts 101°
2026-04-30 12:39 43.42766 10.12074 3959 ft 181 kts 74°
2026-04-30 12:39 43.43299 10.13614 3967 ft 179 kts 48°
2026-04-30 12:39 43.44236 10.14724 3974 ft 177 kts 37°
2026-04-30 12:39 43.45217 10.15697 3797 ft 175 kts 36°
2026-04-30 12:40 43.46215 10.16691 3543 ft 176 kts 36°
2026-04-30 12:40 43.47205 10.17672 3307 ft 177 kts 34°
2026-04-30 12:40 43.48260 10.18539 3091 ft 176 kts 28°
2026-04-30 12:40 43.49356 10.19258 2891 ft 175 kts 25°
2026-04-30 12:41 43.50462 10.19953 2762 ft 170 kts 25°
2026-04-30 12:41 43.51511 10.20612 2681 ft 160 kts 25°
2026-04-30 12:41 43.52502 10.21237 2531 ft 153 kts 25°
2026-04-30 12:41 43.53470 10.21828 2482 ft 152 kts 24°
2026-04-30 12:42 43.54437 10.22408 2480 ft 152 kts 24°
2026-04-30 12:42 43.55364 10.23019 2476 ft 143 kts 33°
2026-04-30 12:42 43.56127 10.23890 2471 ft 140 kts 41°
2026-04-30 12:42 43.57045 10.25084 2198 ft 136 kts 42°
2026-04-30 12:43 43.57502 10.25687 1952 ft 138 kts 43°
2026-04-30 12:43 43.58190 10.26595 1645 ft 137 kts 43°
2026-04-30 12:43 43.58884 10.27511 1586 ft 137 kts 44°
2026-04-30 12:43 43.59574 10.28425 1582 ft 138 kts 43°
2026-04-30 12:44 43.60271 10.29347 1583 ft 140 kts 42°
2026-04-30 12:44 43.60976 10.30280 1583 ft 141 kts 42°
2026-04-30 12:44 43.61693 10.31227 1505 ft 139 kts 42°
2026-04-30 12:44 43.62362 10.32112 1315 ft 132 kts 43°
2026-04-30 12:45 43.63023 10.32986 1138 ft 131 kts 44°
2026-04-30 12:45 43.63683 10.33858 969 ft 130 kts 45°
2026-04-30 12:45 43.64328 10.34713 803 ft 130 kts 46°
2026-04-30 12:45 43.64956 10.35617 647 ft 129 kts 51°
2026-04-30 12:46 43.65603 10.36473 510 ft 129 kts 46°
2026-04-30 12:46 43.66309 10.37246 312 ft 130 kts 42°
2026-04-30 12:46 43.67012 10.37986 156 ft 126 kts 43°
2026-04-30 12:46 43.67706 10.38715 34 ft 124 kts 44°
2026-04-30 12:47 43.68321 10.39370 21 ft 90 kts 38°
2026-04-30 12:47 43.68687 10.39746 22 ft 41 kts 37°
2026-04-30 12:47 43.68923 10.39992 22 ft 54 kts 37°
2026-04-30 12:47 43.69168 10.40241 22 ft 29 kts 39°
2026-04-30 12:48 43.69302 10.40254 22 ft 28 kts 307°
2026-04-30 12:48 43.69422 10.40095 22 ft 15 kts 352°
2026-04-30 12:48 43.69513 10.40081 23 ft 15 kts 353°
2026-04-30 12:48 43.69614 10.40060 25 ft 14 kts 351°
2026-04-30 12:49 43.69682 10.40015 26 ft 8 kts 290°
2026-04-30 12:49 43.69716 10.39963 26 ft 4 kts 12°
2026-04-30 12:49 43.69754 10.39972 26 ft 8 kts
2026-04-30 12:49 43.69765 10.39974 26 ft 0 kts